Regional Weather Roundup
Issued by NWS

Home | Current Version | Previous Version | Graphics & Text | Print | Product List | Glossary On
Versions: 1 2 3 4 5 6 7 8 9 10 11 12 13 14 15 16 17 18 19 20 21 22 23 24 25 26 27 28 29 30 31 32 33 34 35 36 37 38 39 40 41 42 43 44 45 46 47 48 49 50
000
ASUS45 KCYS 292210
RWRWY

WYOMING REGIONAL WEATHER ROUNDUP
NATIONAL WEATHER SERVICE CHEYENNE WY
400 PM MDT FRI AUG 29 2014

NOTE:  "FAIR" INDICATES FEW OR NO CLOUDS BELOW 12,000 FEET
WITH NO SIGNIFICANT WEATHER AND/OR OBSTRUCTIONS TO VISIBILITY.

WYZ001-292300-
YELLOWSTONE NATIONAL PARK

CITY           SKY/WX    TMP DP  RH WIND       PRES   REMARKS
LK YELLOWSTONE   N/A     68  36  30 VRB5      30.23F
W YELLOWSTONE  NOT AVBL

$$
WYZ002>013-054>058-071-098>099-292300-
NORTHERN WYOMING

CITY           SKY/WX    TMP DP  RH WIND       PRES   REMARKS
JACKSON        MOSUNNY   75  37  25 S6G17     30.13F
CODY           MOSUNNY   79  46  31 E7        30.01S
GREYBULL       SUNNY     82  41  23 VRB6      29.95F
WORLAND        MOSUNNY   82  41  23 VRB7      29.97F
SHERIDAN       MOSUNNY   75  50  41 VRB3      30.02F
BUFFALO        MOSUNNY   73  48  41 E6        30.07F
GILLETTE       MOSUNNY   76  49  38 N9        30.03F
HULETT         FAIR      72  50  46 MISG      30.05
NEWCASTLE      FAIR      77  43  29 N8        30.02

$$
WYZ014>020-022>026-101>103-292300-
CENTRAL WYOMING

CITY           SKY/WX    TMP DP  RH WIND       PRES   REMARKS
BIG PINEY      SUNNY     75  37  25 W7        30.18F
PINEDALE       CLEAR     73  32  21 NW15      30.18F
DUBOIS         FAIR      73  30  20 N15G25    30.15F
LANDER         MOSUNNY   81  44  27 SE7       30.03F
RIVERTON       SUNNY     79  39  23 VRB5      30.05F
CASPER         PTSUNNY   79  40  24 VRB7      30.05F
DOUGLAS        MOSUNNY   80  45  28 MISG      30.06F

$$
WYZ021-027>030-104>119-292300-
SOUTHERN WYOMING

CITY           SKY/WX    TMP DP  RH WIND       PRES   REMARKS
EVANSTON       MOSUNNY   78  38  23 W15       30.20F
KEMMERER       CLEAR     70  36  28 W13G18    30.22F
ROCK SPRINGS   SUNNY     74  35  24 NW10G21   30.16F
DIXON          FAIR      76  44  31 W3        30.19F
RAWLINS        SUNNY     76  35  22 W10G21    30.16F
SARATOGA       FAIR      73  41  31 W16       30.19F
LARAMIE        CLOUDY    63  44  50 SE13      30.18F
CHEYENNE       MOSUNNY   72  46  39 NE8       30.12F
TORRINGTON     MOSUNNY   81  49  32 NW13      30.00F
PINE BLUFFS    FAIR      75  45  33 N10G16    30.08F

$$


USA.gov is the U.S. government's official web portal to all federal, state and local government web resources and services.